www.pogodaiklimat.ru

Погода и климат >> Архив погоды >> Мадагаскар >> Sambava


ПОГОДА в Sambava

  • Прогноз погоды в Sambava
  • Монитор погоды в Sambava
  • Климат города

АРХИВ ПОГОДЫ в Sambava

Время (UTC), дата Ветер
(напр.,м/с)
 
Видим.   Явления Облачность Т
(С)
Тd
(С)
f
(%)
Тe
(С)
Тes
(С)
Комфортность P
(гПа)
Po
(гПа)
Тmin
(С)
Tmax
(С)
R
(мм)
R24
(мм)
S
(см)
00 7.12 ЮЗ 3 30 км зарница {дождь} 4/4 600 м
[Cb cap]
+22.8 +21.3 91 +30 +30 очень
душно
1011.4 1010.8 0.7
03 7.12 ЮЗ 3 40 км 9/9 600 м
[Cu Sc]
+23.4 +21.3 88 +31 +32 очень
душно
1012.8 1012.2 1
06 7.12 Ю 5 40 км 6/5 600 м
[Cu med, cong Ci sp]
+30.0 +22.3 63 +39 +42 очень
душно
1013.3 1012.7 +22.6 +32.2 1
09 7.12 ЮВ 6 40 км 4/3 600 м
[Cu med, cong Ci sp]
+31.0 +22.8 62 +41 +46 опасность
перегрева
1011.4 1010.8
12 7.12 Ю 5 40 км 4/1 600 м
[Cb cap Ci sp]
+30.0 +24.3 72 +42 +46 опасность
перегрева
1010.1 1009.5
00 8.12 ЮЗ 3 30 км 6/6 600 м
[Cu med, cong]
+25.6 +23.6 89 +35 +35 очень
душно
1011.9 1011.3
03 8.12 ЮЗ 3 40 км 1/1 600 м
[Cu Sc]
+24.6 +23.1 91 +33 +33 очень
душно
1012.7 1012.1
06 8.12 Ю 6 40 км 6/6 600 м
[Cu med, cong]
+30.2 +22.0 62 +39 +41 очень
душно
1013.4 1012.8 +24.0 +32.0
09 8.12 Ю 6 40 км 3/1 600 м
[Cu med, cong Cc]
+30.8 +21.6 58 +39 +46 очень
душно
1012.9 1012.1
12 8.12 Ю 6 40 км 1/1 600 м
[Cb cap]
+30.6 +22.5 62 +40 +43 очень
душно
1011.4 1010.8
15 8.12 Ю 5 35 км 8/3 600 м
[Cb cap Ac trans Ci ing]
+27.0 +22.8 78 +36 +36 очень
душно
1012.6 1012.0 +31.6
00 9.12 ЮЗ 3 30 км 1/1 600 м
[Cu med, cong]
+22.2 +18.4 79 +27 +27 душно 1012.1 1011.5
03 9.12 З 3 40 км 3/1 600 м
[Cu med, cong Ci sp]
+23.2 +18.8 76 +29 +30 душно 1013.6 1013.0
06 9.12 Ю 5 40 км 3/1 600 м
[Cu med, cong Ac trans Ci sp]
+30.4 +19.5 52 +36 +42 очень
душно
1014.5 1013.9 +22.0 +31.6
09 9.12 ЮВ 6 40 км 3/1 600 м
[Cu med, cong Ci sp]
+31.6 +19.2 48 +37 +44 очень
душно
1012.8 1012.2
12 9.12 ЮВ 6 40 км 3/1 600 м
[Cu med, cong Ci sp]
+30.6 +22.5 62 +40 +43 очень
душно
1010.8 1010.2
15 9.12 Ю 5 40 км 8/3 600 м
[Cu Sc Ci sp]
+27.5 +23.3 78 +37 +37 очень
душно
1012.8 1012.2 +32.2
00 10.12 ЮЗ 2 30 км 1/1 600 м
[Cu med, cong]
+23.0 +21.8 93 +31 +31 очень
душно
1012.0 1011.4
03 10.12 ЮЗ 3 40 км 6/1 600 м
[Cu Sc Cs]
+24.0 +21.6 86 +31 +31 очень
душно
1013.5 1012.9
06 10.12 Ю 5 40 км 3/1 600 м
[Cu med, cong Ci sp]
+31.0 +20.3 53 +38 +44 очень
душно
1014.5 1013.9 +20.2 +32.2
09 10.12 Ю 6 40 км 6/1 600 м
[Cu med, cong Ci sp]
+31.6 +21.3 54 +39 +46 очень
душно
1012.9 1012.3
12 10.12 ЮВ 6 40 км 6/1 600 м
[Cu med, cong Ci sp]
+30.0 +23.3 67 +40 +43 очень
душно
1011.1 1010.5
15 10.12 Ю 5 40 км 9/9 600 м
[Cu med, cong]
+27.6 +24.5 83 +39 +39 очень
душно
1012.2 1011.6 +32.4
00 11.12 штиль 0 30 км 1/1 500 м
[Cu Sc]
+23.5 +22.6 95 +31 +31 очень
душно
1012.1 1011.5
03 11.12 ЮЗ 1 35 км 1/1 500 м
[Cu Sc]
+24.5 +22.8 90 +32 +33 очень
душно
1013.6 1013.0
06 11.12 Ю 3 40 км 3/3 600 м
[Cu med, cong]
+30.5 +22.6 63 +40 +48 очень
душно
1014.2 1013.6 +23.1 +32.4
09 11.12 Ю 4 40 км 6/3 600 м
[Cu Sc Ci fib]
+31.5 +24.2 65 +43 +53 опасность
перегрева
1011.9 1011.3
12 11.12 ЮВ 4 40 км 4/3 600 м
[Cu med, cong Ci fib]
+30.1 +22.7 65 +40 +44 очень
душно
1010.0 1009.4
15 11.12 Ю 3 25 км осадки на расстоянии 6/6 500 м
[Cu Sc]
+27.5 +23.8 80 +38 +38 очень
душно
1012.0 1011.4 +32.2
03 12.12 З 3 40 км 4/3 500 м
[Cu Sc Ci fib]
+25.2 +23.0 88 +34 +34 очень
душно
1014.2 1013.6
06 12.12 ЮЗ 2 40 км 6/4 600 м
[Cu Sc Ci fib]
+31.1 +22.6 61 +41 +48 опасность
перегрева
1015.1 1014.5 +23.7 +32.2
09 12.12 ЮВ 4 40 км 5/1 700 м
[Cu med, cong Ci fib]
+31.7 +23.2 61 +42 +54 опасность
перегрева
1014.0 1013.4
12 12.12 ЮВ 4 40 км 3/1 600 м
[Cu med, cong Ci fib]
+29.9 +21.5 61 +38 +44 очень
душно
1012.3 1011.7
15 12.12 Ю 4 25 км осадки на расстоянии 8/6 500 м
[Cu Sc]
+28.0 +24.0 79 +39 +39 очень
душно
1013.4 1012.8 +32.4
00 13.12 штиль 0 35 км 1/1 500 м
[Cu med, cong]
+24.5 +23.4 94 +33 +33 очень
душно
1013.2 1012.6
03 13.12 ЮЗ 2 40 км 1/1 500 м
[Cu Sc]
+25.0 +23.2 90 +33 +34 очень
душно
1015.3 1014.7
06 13.12 Ю 4 40 км 6/3 600 м
[Cu med, cong Ci fib]
+31.9 +22.4 57 +41 +47 опасность
перегрева
1015.5 1014.9 +24.4 +32.4
09 13.12 Ю 5 40 км 6/3 700 м
[Cb cap Ci sp]
+32.2 +24.8 65 +45 +52 опасность
перегрева
1013.9 1013.3
12 13.12 Ю 5 40 км 6/4 600 м
[Cb cap Ci sp]
+30.0 +23.6 69 +41 +44 опасность
перегрева
1012.7 1012.1
15 13.12 Ю 4 20 км осадки на расстоянии 8/3 500 м
[Cb cap Ci sp]
+27.9 +24.0 79 +39 +39 очень
душно
1014.1 1013.5 +32.4

 

Местоположение метеостанции Sambava (Мадагаскар): широта -14.28 долгота 50.17 высота над уровнем моря 5 м.

В архиве по умолчанию представлена погода в Sambava за последнюю неделю. Архивные данные за месяц целиком и за предыдущие месяцы, начиная с января 2011 года, Вы можете получить, выбрав интересующий диапазон дат из раскрывающегося списка и нажав кнопку "Ввод!".


*Определитесь, кто Вы:
робот инопланетянин человек

Внимание! Время в таблицах - всемирное. Для получения местного времени необходимо прибавить поправку, которая в Sambava равна 3 ч.

Смотрите также архив погоды в соседних городах и на ближайших метеорологических станциях:

Погода в Antalaha (Мадагаскар) (67 км)
Погода в Fascene (Мадагаскар) (227 км)
Погода в Antsiranana (Мадагаскар) (234 км)
Погода в Antsohihy (Мадагаскар) (245 км)
Погода в Nosy Boraha (Мадагаскар) (314 км)
Погода в Ambohitsilaozana (Мадагаскар) (413 км)
Погода в Toamasina (Мадагаскар) (434 км)
Погода в Mahajanga (Мадагаскар) (438 км)
Погода в Glorieuses Island (Реюньон) (446 км)
Погода в Serge-Frolow (Реюньон) (495 км)

Пояснения к столбцам:

Ветер - указаны скорость ветра в м/с - средняя за 10 мин, порывы в срок и между сроками (в фигурных скобках) и направление, откуда дует ветер: С - северный, СВ - северо-восточный, В - восточный, ЮВ - юго-восточный, Ю - южный, ЮЗ - юго-западный, З - западный, СЗ - северо-западный.
Видимость - горизонтальная дальность видимости в метрах или километрах. При видимости от 1 до 10 км при отсутствии осадков обычно наблюдается дымка, при ухудшении видимости до 1 км и менее - туман. В сухую погоду видимость может ухудшаться дымом, пылью или мглою.
Явления - указаны атмосферные явления, наблюдавшиеся в срок или в последний час перед сроком; фигурными скобками обозначены явления, наблюдавшиеся между сроками (за 1-3 часа до срока); квадратными скобками обозначены град или гололедные отложения с указанием их диаметра в мм.
Облачность - указаны через наклонную черту общая и нижняя облачность в баллах и высота нижней границы облаков в метрах; квадратными скобками обозначены формы облаков: Ci - перистые, Cs - перисто-слоистые, Cc - перисто-кучевые, Ac - высококучевые, As - высокослоистые, Sc - слоисто-кучевые, Ns - слоисто-дождевые, Cu - кучевые, Cb - кучево-дождевые. Подробнее классификацию облаков см. в Атласе облаков (PDF).
T - Температура воздуха - температура, измеренная на высоте 2 м над землей.
Td - Температура точки росы - температура, при понижении до которой содержащийся в воздухе водяной пар достигнет насыщения.
f - Относительная влажность воздуха - влажноcть воздуха, измеренная на высоте 2 м над землей.
Te - Эффективная температура - температура, которую ощущает одетый по сезону человек в тени. Характеристика душности погоды. При расчете учитывается влияние влажности воздуха и скорости ветра на теплоощущения человека.
Tes - Эффективная температура на солнце - температура, которую ощущает человек, с поправкой на солнечный нагрев. Характеристика знойности погоды. Зависит от высоты солнца над горизонтом, облачности и скорости ветра. Ночью, в пасмурную погоду, а также при ветре 12 м/с и более поправка равна нулю.
P - Атмосферное давление - приведенное к уровню моря атмосферное давление.
Po - Атмосферное давление - измеренное на уровне метеостанции атмосферное давление.
Tmin - Минимальная температура - минимум температуры воздуха на высоте 2 м над землей.
Tmax - Максимальная температура - максимум температуры воздуха на высоте 2 м над землей.
R - Количество осадков - Количество выпавших осадков за период времени, мм. При наведении курсора мыши на число - период времени, за который выпало указанное количество осадков.
R24 - Количество осадков - Количество выпавших осадков за 24 часа, мм.
S - Снежный покров - Высота снежного покрова, см. При наведении курсора мыши на число - состояние снежного покрова и степень покрытия местности в баллах.